Location: Washington
(38.8950°N, 77.0370°W)
Time: 21:58:08
(UTC-05:00)

ISS - All Passes

Search period start: 27 November 2014 00:00
Search period end: 07 December 2014 00:00
Orbit: 407 x 417 km, 51.6° (Epoch: 27 November)

Date Brightness Start Highest point End Pass type
(mag) Time Alt. Az. Time Alt. Az. Time Alt. Az.
27 Nov - 00:19:39 10° WNW 00:22:16 21° NNW 00:24:53 10° NNE night (unlit)
27 Nov - 03:36:20 10° N 03:37:46 12° NNE 03:39:13 10° NE visible
27 Nov - 05:11:55 10° NW 05:15:05 44° NE 05:18:16 10° ESE visible
27 Nov - 06:49:10 10° W 06:51:30 18° SW 06:53:49 10° S daylight
27 Nov - 21:52:56 10° SSW 21:55:45 26° SE 21:58:33 10° ENE night (unlit)
27 Nov - 23:29:19 10° W 23:32:18 32° NNW 23:35:19 10° NE night (unlit)
28 Nov - 01:08:52 10° NNW 01:09:45 11° NNW 01:10:39 10° N night (unlit)
28 Nov - 02:47:11 10° N 02:47:39 10° N 02:48:06 10° NNE night (unlit)
28 Nov - 04:22:17 10° NNW 04:25:10 27° NNE 04:28:03 10° E visible
28 Nov - 05:58:49 10° WNW 06:01:49 33° SW 06:04:49 10° SSE visible
28 Nov - 21:04:13 10° SSE 21:06:04 14° SE 21:07:56 10° E night (unlit)
28 Nov - 22:39:10 10° WSW 22:42:23 54° NW 22:45:37 10° NE night (unlit)
29 Nov - 00:17:56 10° NW 00:19:37 13° NNW 00:21:18 10° NNE night (unlit)
29 Nov - 03:32:41 10° NNW 03:35:09 19° NNE 03:37:35 10° ENE visible
29 Nov - 05:08:47 10° WNW 05:12:03 65° SW 05:15:19 10° SE visible
29 Nov - 21:49:13 10° SW 21:52:30 80° SE 21:55:47 10° NE night (unlit)
29 Nov - 23:27:11 10° WNW 23:29:29 17° NNW 23:31:47 10° NNE night (unlit)
30 Nov - 02:43:09 10° NNW 02:45:02 14° NNE 02:46:54 10° NE night (unlit)
30 Nov - 04:18:54 10° NW 04:22:11 65° NE 04:25:27 10° ESE visible
30 Nov - 05:57:06 10° WSW 05:58:25 12° SW 05:59:43 10° SSW visible
30 Nov - 20:59:33 10° SSW 21:02:39 40° SE 21:05:46 10° ENE night (unlit)
30 Nov - 22:36:37 10° W 22:39:23 24° NNW 22:42:09 10° NNE night (unlit)
01 Dec - 01:53:40 10° N 01:54:49 11° NNE 01:55:59 10° NNE night (unlit)
01 Dec - 03:29:07 10° NW 03:32:12 37° NNE 03:35:17 10° ESE night (unlit)
01 Dec - 05:06:04 10° W 05:08:41 22° SW 05:11:18 10° S visible
01 Dec - 20:10:17 10° S 20:12:51 21° SE 20:15:25 10° E night (unlit)
01 Dec - 21:46:13 10° WSW 21:49:19 38° NNW 21:52:25 10° NE night (unlit)
01 Dec - 23:25:29 10° NW 23:26:41 12° NNW 23:27:53 10° N night (unlit)
02 Dec - 02:39:23 10° NNW 02:42:08 24° NNE 02:44:52 10° E night (unlit)
02 Dec - 04:15:44 10° WNW 04:18:52 41° SW 04:21:59 10° SSE visible
02 Dec - 19:21:55 10° SSE 19:23:04 11° SE 19:24:13 10° ESE night (unlit)
02 Dec - 20:56:01 10° WSW 20:59:17 68° NW 21:02:34 10° NE night (unlit)
02 Dec - 22:34:30 10° NW 22:36:25 15° NNW 22:38:20 10° NNE night (unlit)
03 Dec - 01:49:41 10° NNW 01:51:57 17° NNE 01:54:12 10° ENE night (unlit)
03 Dec - 03:25:39 10° NW 03:28:56 83° SW 03:32:13 10° SE night (unlit)
03 Dec - 20:06:03 10° SW 20:09:18 62° SE 20:12:33 10° ENE night (unlit)
03 Dec - 21:43:42 10° WNW 21:46:11 19° NNW 21:48:40 10° NNE night (unlit)
04 Dec - 01:00:02 10° NNW 01:01:41 13° NNE 01:03:19 10° NE night (unlit)
04 Dec - 02:35:41 10° NW 02:38:55 52° NE 02:42:08 10° ESE night (unlit)
04 Dec - 04:13:16 10° W 04:15:14 15° SW 04:17:11 10° SSW night (unlit)
04 Dec - 19:16:23 10° SSW 19:19:21 31° SE 19:22:19 10° ENE visible
04 Dec - 20:53:04 10° W 20:55:58 28° NNW 20:58:53 10° NNE night (unlit)
04 Dec - 22:32:54 10° NNW 22:33:28 10° N 22:34:01 10° N night (unlit)
05 Dec - 00:10:31 10° N 00:11:20 11° N 00:12:08 10° NNE night (unlit)
05 Dec - 01:45:48 10° NW 01:48:47 31° NNE 01:51:45 10° E night (unlit)
05 Dec - 03:22:30 10° WNW 03:25:21 27° SW 03:28:12 10° SSE night (unlit)
05 Dec - 18:27:12 10° S 18:29:26 17° SE 18:31:40 10° E visible
05 Dec - 20:02:37 10° WSW 20:05:48 46° NW 20:08:59 10° NE visible
05 Dec - 21:41:35 10° NW 21:43:04 12° NNW 21:44:34 10° NNE night (unlit)
06 Dec - 00:55:58 10° NNW 00:58:33 21° NNE 01:01:07 10° ENE night (unlit)
06 Dec - 02:32:09 10° WNW 02:35:22 54° SW 02:38:35 10° SE night (unlit)
06 Dec - 19:12:22 10° SW 19:15:40 86° NW 19:18:58 10° NE visible
06 Dec - 20:50:33 10° WNW 20:52:42 16° NNW 20:54:51 10° NNE night (unlit)
